TimeCST,TemperatureF,Dew PointF,Humidity,Sea Level PressureIn,VisibilityMPH,Wind Direction,Wind SpeedMPH,Gust SpeedMPH,PrecipitationIn,Events,Conditions,WindDirDegrees,DateUTC
12:58 AM,47.7,44.4,89,30.02,10.0,Calm,Calm,-,N/A,,Scattered Clouds,0,2013-12-02 06:58:00
1:58 AM,48.0,44.6,88,30.02,10.0,North,1.2,-,N/A,,Partly Cloudy,360,2013-12-02 07:58:00
2:58 AM,49.1,45.5,87,29.99,10.0,Calm,Calm,-,N/A,,Clear,0,2013-12-02 08:58:00
3:58 AM,49.5,45.5,86,29.98,10.0,North,1.2,-,N/A,,Partly Cloudy,360,2013-12-02 09:58:00
4:58 AM,48.7,45.3,88,29.96,10.0,Calm,Calm,-,N/A,,Scattered Clouds,0,2013-12-02 10:58:00
5:58 AM,45.5,42.8,90,29.96,5.0,ENE,3.5,-,N/A,,Clear,70,2013-12-02 11:58:00
6:58 AM,45.1,42.6,91,29.96,10.0,Calm,Calm,-,N/A,,Clear,0,2013-12-02 12:58:00
7:58 AM,52.3,43.5,72,29.95,10.0,Calm,Calm,-,N/A,,Scattered Clouds,0,2013-12-02 13:58:00
8:55 AM,58.6,42.1,54,29.95,10.0,South,4.6,-,N/A,,Scattered Clouds,170,2013-12-02 14:55:00
9:55 AM,63.3,42.3,46,29.94,10.0,South,3.5,-,N/A,,Scattered Clouds,190,2013-12-02 15:55:00
10:55 AM,67.1,44.2,44,29.91,10.0,WSW,6.9,-,N/A,,Partly Cloudy,240,2013-12-02 16:55:00
11:55 AM,67.6,43.9,42,29.88,10.0,Variable,1.2,-,N/A,,Partly Cloudy,0,2013-12-02 17:55:00
12:55 PM,70.0,44.1,39,29.86,10.0,WNW,5.8,-,N/A,,Partly Cloudy,290,2013-12-02 18:55:00
1:55 PM,70.0,44.1,39,29.85,10.0,SSE,8.1,-,N/A,,Partly Cloudy,160,2013-12-02 19:55:00
2:55 PM,68.5,46.0,44,29.83,10.0,South,9.2,-,N/A,,Partly Cloudy,170,2013-12-02 20:55:00
3:55 PM,66.7,46.0,47,29.82,10.0,South,9.2,-,N/A,,Partly Cloudy,180,2013-12-02 21:55:00
4:55 PM,60.6,46.9,61,29.84,10.0,South,6.9,-,N/A,,Partly Cloudy,170,2013-12-02 22:55:00
5:55 PM,56.3,47.5,72,29.85,10.0,South,4.6,-,N/A,,Partly Cloudy,170,2013-12-02 23:55:00
6:55 PM,53.8,47.8,80,29.86,10.0,South,5.8,-,N/A,,Partly Cloudy,180,2013-12-03 00:55:00
7:55 PM,54.1,48.9,82,29.87,10.0,SSE,4.6,-,N/A,,Partly Cloudy,160,2013-12-03 01:55:00
8:55 PM,54.3,50.2,86,29.86,10.0,South,5.8,-,N/A,,Partly Cloudy,170,2013-12-03 02:55:00
9:55 PM,54.7,51.6,89,29.87,10.0,South,3.5,-,N/A,,Scattered Clouds,190,2013-12-03 03:55:00
10:55 PM,55.4,52.7,91,29.88,10.0,South,3.5,-,N/A,,Scattered Clouds,170,2013-12-03 04:55:00
11:55 PM,54.0,51.1,90,29.86,10.0,South,5.8,-,N/A,,Mostly Cloudy,180,2013-12-03 05:55:00